Regional Weather Roundup
Issued by NWS Glasgow, MT

Home | Current Version | Previous Version | Text Only | Print | Product List | Glossary On
Versions: 1 2 3 4 5 6 7 8 9 10 11 12 13 14 15 16 17 18 19 20 21 22 23 24 25 26 27 28 29 30 31 32 33 34 35 36 37 38 39 40 41 42 43 44 45 46 47 48 49 50
000
ASUS45 KGGW 241715
RWRGGW
HOURLY WEATHER ROUNDUP FOR NORTHEAST MONTANA
NATIONAL WEATHER SERVICE GLASGOW MONTANA
1000 AM MST MON NOV 24 2014

NOTE: "FAIR" INDICATES FEW OR NO CLOUDS BELOW 12,000 FEET WITH NO
SIGNIFICANT WEATHER AND/OR OBSTRUCTIONS TO VISISBILITY.

NORTHEAST MONTANA


CITY           SKY/WX    TMP DP  RH WIND       PRES   REMARKS
GLASGOW        PTSUNNY   24  18  77 NW9       29.98R
PLENTYWOOD       N/A     18  17  96 SW3         N/A
WOLF POINT     CLOUDY    21  15  78 SW3       30.00R
JORDAN           N/A     32  25  75 NW9       29.99R
WINNETT          N/A     40  21  46 W18G31      N/A
SIDNEY         CLOUDY    18  14  86 CALM      29.99S
GLENDIVE       MOSUNNY   19  16  86 CALM      29.97R
MALTA            N/A     32  27  81 W5          N/A
SCOBEY           N/A     16   8  71 CALM      29.92

FORT PECK REPORTS


CITY           SKY/WX    TMP DP  RH WIND       PRES   REMARKS
FORT PECK        N/A     27  23  85 W7G16       N/A
THE PINES        N/A     32  24  72 W3          N/A

SOUTHEAST MONTANA


CITY           SKY/WX    TMP DP  RH WIND       PRES   REMARKS
BILLINGS       MOSUNNY   38  20  48 NW21G29   30.06R
MILES CITY     CLOUDY    31  26  82 NW12      29.97R
BAKER          PTSUNNY   26  20  77 NW10      29.92R
LIVINGSTON     CLOUDY    34  18  52 W22G29    30.12R

CENTRAL MONTANA


CITY           SKY/WX    TMP DP  RH WIND       PRES   REMARKS
HAVRE          PTSUNNY   32  23  69 W10       30.05R
LEWISTOWN      CLOUDY    36  21  54 NW8       30.07R
GREAT FALLS    CLOUDY    36  21  54 SW14      30.10R
CUT BANK       SUNNY     38  20  48 W22G29    30.07R
HELENA         MOSUNNY   38  19  46 W22G29    30.17R
BUTTE          CLOUDY    29  16  58 W14G20    30.20R
BOZEMAN        CLOUDY    33  18  53 W13       30.19R

WESTERN MONTANA


CITY           SKY/WX    TMP DP  RH WIND       PRES   REMARKS
MISSOULA       MOSUNNY   38  27  64 W12       30.30R
KALISPELL      NOT AVBL

NORTH DAKOTA


CITY           SKY/WX    TMP DP  RH WIND       PRES   REMARKS
WILLISTON      LGT SNOW  14  11  87 SW6       29.97S FOG
DICKINSON      SUNNY     19  13  77 NW9       29.89R
MINOT          SUNNY     13   2  61 NW14      29.93R WCI  -2
BISMARCK       SUNNY     18   7  62 N14G24    29.92R

SOUTHERN SASKATCHEWAN


CITY           SKY/WX    TMP DP  RH WIND       PRES   REMARKS
REGINA         CLOUDY    16  14  93 SW6       29.92F
MOOSE JAW      FLURRIES  21  16  79 W3        29.92S
ESTEVAN        MOSUNNY   12   9  85 W10       29.93  WCI  -1
SWIFT CURRENT  FLURRIES  23  21  93 W17       29.91R



USA.gov is the U.S. government's official web portal to all federal, state and local government web resources and services.